User: anonymous   Login
Location: Unspecified
(0.0000°N, 0.0000°E)
Time: 08:58:26
(UTC+02:00)
Language:

Cosmos 1782 Rocket - Orbit

View from above orbital plane
View from above orbital plane
View from above satellite
View from above satellite

Ground track
Ground track

The orbit data is extracted from the following two-line orbital elements,

1 16987U 86074B   16240.56316757  .00000105  00000-0  99153-5 0  9997
2 16987  82.5147 225.3818 0019156 143.9212 355.3860 14.82913245614957
Epoch (UTC): 27 August 2016 13:30:57
Eccentricity: 0.0019156
inclination: 82.5147°
perigee height: 607 km
apogee height: 633 km
right ascension of ascending node: 225.3818°
argument of perigee: 143.9212°
revolutions per day: 14.82913245
mean anomaly at epoch: 355.3860°
orbit number at epoch: 61495

The dashed part of the orbit path shows where the satellite is in the earth's shadow,  

DLR